TimePDT,TemperatureF,Dew PointF,Humidity,Sea Level PressureIn,VisibilityMPH,Wind Direction,Wind SpeedMPH,Gust SpeedMPH,PrecipitationIn,Events,Conditions,WindDirDegrees,DateUTC
12:58 AM,64.4,39.2,40,29.99,10.0,NE,3.5,-,N/A,,Clear,50,2013-05-05 07:58:00
1:58 AM,57.4,39.6,51,29.99,10.0,SW,2.3,-,N/A,,Clear,230,2013-05-05 08:58:00
2:58 AM,49.8,40.3,70,29.98,10.0,SE,2.3,-,N/A,,Clear,130,2013-05-05 09:58:00
3:58 AM,46.9,40.8,79,29.97,10.0,SSE,3.5,-,N/A,,Clear,150,2013-05-05 10:58:00
4:58 AM,44.6,40.5,85,29.96,10.0,South,3.5,-,N/A,,Clear,190,2013-05-05 11:58:00
5:58 AM,44.6,41.0,87,29.95,10.0,Calm,Calm,-,N/A,,Clear,0,2013-05-05 12:58:00
6:58 AM,60.3,43.2,53,29.95,10.0,NE,5.8,-,N/A,,Clear,50,2013-05-05 13:58:00
7:58 AM,62.1,44.2,52,29.95,10.0,North,5.8,-,N/A,,Clear,360,2013-05-05 14:58:00
8:58 AM,65.8,43.5,44,29.93,10.0,NNE,9.2,-,N/A,,Clear,20,2013-05-05 15:58:00
9:58 AM,70.2,43.3,38,29.92,10.0,NNE,12.7,21.9,N/A,,Clear,20,2013-05-05 16:58:00
10:58 AM,72.5,43.5,35,29.91,10.0,NNE,13.8,-,N/A,,Clear,20,2013-05-05 17:58:00
11:58 AM,75.9,43.3,31,29.90,10.0,North,13.8,-,N/A,,Clear,10,2013-05-05 18:58:00
12:58 PM,77.7,41.2,27,29.88,10.0,NNE,11.5,-,N/A,,Clear,20,2013-05-05 19:58:00
1:58 PM,80.6,39.7,23,29.86,10.0,NNE,9.2,-,N/A,,Clear,30,2013-05-05 20:58:00
2:58 PM,82.2,41.2,23,29.84,10.0,NNE,15.0,19.6,N/A,,Clear,20,2013-05-05 21:58:00
3:58 PM,82.6,39.2,21,29.82,10.0,NE,12.7,17.3,N/A,,Clear,50,2013-05-05 22:58:00
4:58 PM,82.2,39.6,22,29.80,10.0,NNE,13.8,-,N/A,,Clear,30,2013-05-05 23:58:00
5:58 PM,81.9,39.6,22,29.78,10.0,NNE,11.5,-,N/A,,Clear,20,2013-05-06 00:58:00
6:58 PM,79.0,39.6,24,29.78,10.0,NNE,10.4,-,N/A,,Clear,30,2013-05-06 01:58:00
7:58 PM,75.7,39.0,27,29.78,10.0,NNE,6.9,-,N/A,,Clear,30,2013-05-06 02:58:00
8:58 PM,71.8,39.2,31,29.79,10.0,NE,3.5,-,N/A,,Clear,40,2013-05-06 03:58:00
9:58 PM,67.6,41.5,39,29.81,10.0,Calm,Calm,-,N/A,,Clear,0,2013-05-06 04:58:00
10:58 PM,57.4,42.6,58,29.82,10.0,South,3.5,-,N/A,,Clear,190,2013-05-06 05:58:00
11:58 PM,51.4,42.8,72,29.83,10.0,Variable,2.3,-,N/A,,Clear,0,2013-05-06 06:58:00